Regional Weather Roundup
Issued by NWS

Home | Current Version | Previous Version | Text Only | Print | Product List | Glossary Off
Versions: 1 2 3 4 5 6 7 8 9 10 11 12 13 14 15 16 17 18 19 20 21 22 23 24 25 26 27 28 29 30 31 32 33 34 35 36 37 38 39 40 41 42 43 44 45 46 47 48 49 50

000
ASUS43 KDTX 031201
RWRMI
MICHIGAN HOURLY REGIONAL WEATHER ROUNDUP
NATIONAL WEATHER SERVICE DETROIT/PONTIAC MI
800 AM EDT WED JUN 03 2015

NOTE: "FAIR" INDICATES FEW OR NO CLOUDS BELOW 12,000 FEET WITH NO
SIGNIFICANT WEATHER AND/OR OBSTRUCTION TO VISIBILITY.

MIZ047>049-052>055-059>063-066>070-074>076-081>083-031300-
SOUTHEAST LOWER MICHIGAN

CITY           SKY/WX    TMP DP  RH WIND       PRES   REMARKS
ADRIAN         MOSUNNY   55  49  80 NE3       30.14S
6HR MIN TEMP:  47; 6HR MAX TEMP:  55;

ALMA           SUNNY     53  52  98 E3        30.16S
6HR MIN TEMP:  42; 6HR MAX TEMP:  53;

ANN ARBOR      SUNNY     55  49  80 E6        30.14S
BAD AXE        SUNNY     56  45  67 CALM      30.19R
CARO           SUNNY     54  47  78 CALM      30.17R
DETROIT CITY   SUNNY     58  52  80 E6        30.16R
6HR MIN TEMP:  50; 6HR MAX TEMP:  58;

DETROIT        MOSUNNY   57  49  74 NE7       30.15R
6HR MIN TEMP:  50; 6HR MAX TEMP:  57;

FLINT          SUNNY     56  48  74 E3        30.16S
6HR MIN TEMP:  45; 6HR MAX TEMP:  56;

GROSSE ILE     SUNNY     55  50  82 NE3       30.13S
HILLSDALE      PTSUNNY   56  51  86 E3        30.13R
6HR MIN TEMP:  49; 6HR MAX TEMP:  56;

HOWELL         SUNNY     53  51  94 NE3       30.15R
6HR MIN TEMP:  43; 6HR MAX TEMP:  53;


CITY           SKY/WX    TMP DP  RH WIND       PRES   REMARKS
JACKSON        SUNNY     54  47  77 E7        30.14R
6HR MIN TEMP:  45; 6HR MAX TEMP:  54;

LAMBERTVILLE   SUNNY     57  54  88 CALM      30.13S
LANSING        SUNNY     53  49  86 E3        30.15S
6HR MIN TEMP:  45; 6HR MAX TEMP:  55;

LAPEER         FAIR      53  45  73 E5        30.17R
MASON          SUNNY     53  47  81 E3        30.15R
MONROE         SUNNY     55  50  82 CALM      30.13R
MT. CLEMENS    MOSUNNY   54  48  78 E6        30.14R
6HR MIN TEMP:  45; 6HR MAX TEMP:  54;

PONTIAC        MOSUNNY   55  47  74 E7        30.15S
6HR MIN TEMP:  47; 6HR MAX TEMP:  55;

PORT HOPE        N/A     56  45  66 S7        30.18R
6HR MIN TEMP:  47; 6HR MAX TEMP:  56;

PORT HURON     SUNNY     54  46  76 E6        30.17S
TRI CITIES     SUNNY     57  51  80 CALM      30.18R
6HR MIN TEMP:  49; 6HR MAX TEMP:  57;

MIDLAND        FAIR      53  50  88 CALM      30.16S
TROY           SUNNY     55  47  76 E6        30.17S
SAGINAW HB     SUNNY     54  52  94 NE3       30.16S
$$
MIZ043>046-050>051-056>058-064>065-071>073-077>080-031300-
SOUTHWEST LOWER MICHIGAN

CITY           SKY/WX    TMP DP  RH WIND       PRES   REMARKS
BATTLE CREEK   SUNNY     55  47  74 SE8       30.13S
6HR MIN TEMP:  45; 6HR MAX TEMP:  55;

BENTON HARBOR  SUNNY     52  47  83 E5        30.11R
6HR MIN TEMP:  42; 6HR MAX TEMP:  54;

BIG RAPIDS     SUNNY     51  46  84 W6        30.15R
6HR MIN TEMP:  45; 6HR MAX TEMP:  51;

COLDWATER      MOSUNNY   53  50  89 SE6       30.12S
6HR MIN TEMP:  43; 6HR MAX TEMP:  53;

FREMONT        FAIR      55  46  74 SE5       30.13S
HOLLAND        SUNNY     54  47  77 E5        30.13R
6HR MIN TEMP:  48; 6HR MAX TEMP:  55;

GRAND RAPIDS   PTSUNNY   54  47  77 E6        30.13S
6HR MIN TEMP:  46; 6HR MAX TEMP:  54;

IONIA          FAIR      55  49  81 E5        30.14R
KALAMAZOO      SUNNY     54  47  77 CALM      30.13R
6HR MIN TEMP:  46; 6HR MAX TEMP:  56;

LUDINGTON      MOSUNNY   58  47  67 S5        30.12S
6HR MIN TEMP:  42; 6HR MAX TEMP:  58;

MARSHALL       SUNNY     53  48  84 E3        30.13R
MOUNT PLEASANT SUNNY     50  49  95 CALM      30.16R
6HR MIN TEMP:  43; 6HR MAX TEMP:  50;

MUSKEGON       PTSUNNY   56  46  69 SE6       30.13R
6HR MIN TEMP:  49; 6HR MAX TEMP:  56;

SOUTH HAVEN    SUNNY     53  47  78 E3        30.12R
$$
MIZ016>042-031300-
NORTHERN LOWER MICHIGAN

CITY           SKY/WX    TMP DP  RH WIND       PRES   REMARKS
ALPENA         MOSUNNY   53  46  77 CALM      30.17R
6HR MIN TEMP:  38; 6HR MAX TEMP:  53;

BEAVER ISLAND  MOSUNNY   54  42  63 S7        30.09S
6HR MIN TEMP:  39; 6HR MAX TEMP:  54;

BELLAIRE       MOSUNNY   57  47  68 S6        30.13S
6HR MIN TEMP:  40; 6HR MAX TEMP:  57;

CADILLAC       SUNNY     57  45  64 S8        30.13F
FRANKFORT      MOSUNNY   59  44  58 S6        30.11S
GAYLORD        MOSUNNY   56  48  74 SW8       30.14S
6HR MIN TEMP:  48; 6HR MAX TEMP:  56;

GRAYLING       MOSUNNY   55  46  70 S3        30.15F
6HR MIN TEMP:  37; 6HR MAX TEMP:  55;

HARBOR SPRINGS MOSUNNY   55  44  66 CALM      30.11F
HOUGHTON LAKE  MOSUNNY   56  46  69 S5        30.16R
6HR MIN TEMP:  44; 6HR MAX TEMP:  56;

MANISTEE       MOSUNNY   54  45  71 SE3       30.12S
OSCODA         MOSUNNY   55  49  82 S3        30.17S
PELLSTON       MOSUNNY   53  46  77 SE5       30.12S
6HR MIN TEMP:  36; 6HR MAX TEMP:  53;

ROGERS CITY    PTSUNNY   55  46  70 SW10      30.15S
TRAVERSE CITY  PTSUNNY   58  47  66 VRB5      30.11S
6HR MIN TEMP:  43; 6HR MAX TEMP:  58;

$$
MIZ007>008-015-031300-
EASTERN UPPER MICHIGAN

CITY           SKY/WX    TMP DP  RH WIND       PRES   REMARKS
KINROSS        MOSUNNY   52  45  76 SE5       30.10F
6HR MIN TEMP:  43; 6HR MAX TEMP:  52;

MACKINAC ISLAN MOSUNNY   55  44  66 SE5       30.10S
6HR MIN TEMP:  46; 6HR MAX TEMP:  55;

NEWBERRY       MOSUNNY   52  43  70 S7        30.08R
6HR MIN TEMP:  43; 6HR MAX TEMP:  52;

S. S. MARIE    MOSUNNY   49  42  77 E3        30.10F
6HR MIN TEMP:  45; 6HR MAX TEMP:  49;

$$
MIZ004>006-011>014-085-031300-
CENTRAL UPPER MICHIGAN

CITY           SKY/WX    TMP DP  RH WIND       PRES   REMARKS
MANISTIQUE     SUNNY     51  41  68 S7        30.07F
ESCANABA       MOSUNNY   54  43  66 S9        30.06R
6HR MIN TEMP:  43; 6HR MAX TEMP:  54;

MENOMINEE      MOSUNNY   55  46  71 SW14      30.06R
6HR MIN TEMP:  48; 6HR MAX TEMP:  55;

SAWYER-GWINN   SUNNY     46  43  87 SW9       30.04R
$$
MIZ001>003-009>011-084-031300-
WESTERN UPPER MICHIGAN

CITY           SKY/WX    TMP DP  RH WIND       PRES   REMARKS
IRON MOUNTAIN  MOSUNNY   49  39  68 SE7       30.03R
6HR MIN TEMP:  44; 6HR MAX TEMP:  53;

HOUGHTON       MOSUNNY   57  44  62 S9        29.96F
6HR MIN TEMP:  53; 6HR MAX TEMP:  57;

COPPER HARBOR    N/A     61  43  51 SW10G16   29.95S
6HR MIN TEMP:  53; 6HR MAX TEMP:  61;

IRONWOOD       PTSUNNY   61  48  63 W6        29.94R
6HR MIN TEMP:  57; 6HR MAX TEMP:  63;

$$

ABBREVIATIONS USED IN REMARKS
   TC - TEMPERATURE IN CELSIUS
  WCI - WIND CHILL INDEX
   HX - HEAT INDEX
  VSB - VISIBILITY




USA.gov is the U.S. government's official web portal to all federal, state and local government web resources and services.